This is the latest recevied weather packets stored in our database for station/object 9M8ZAL-13. If no packets are shown the sender has not sent any weather packets the latest 10 day(s).
| Time | Temp. | Humidity | Pressure | Rain* | Wind** | Luminosity | Snow |
|---|---|---|---|---|---|---|---|
| 1777157937 | 28.33° C | - | 1008.8 hPa | - | - | 1000 W/m² | - |
| 1777157337 | 28.33° C | - | 1008.4 hPa | - | - | 1000 W/m² | - |
| 1777156737 | 27.78° C | - | 1008 hPa | - | - | 1000 W/m² | - |
| 1777156137 | 28.33° C | - | 1008.2 hPa | - | - | 1000 W/m² | - |
| 1777155537 | 28.33° C | - | 1007.9 hPa | - | - | 1000 W/m² | - |
| 1777154937 | 27.78° C | - | 1008 hPa | - | - | 1000 W/m² | - |
| 1777154337 | 28.33° C | - | 1007.8 hPa | - | - | 1000 W/m² | - |
| 1777153737 | 27.78° C | - | 1007.4 hPa | - | - | 1000 W/m² | - |
| 1777153137 | 27.78° C | - | 1007.3 hPa | - | - | 1000 W/m² | - |
| 1777152537 | 28.33° C | - | 1007.2 hPa | - | - | 1000 W/m² | - |
| 1777151937 | 27.78° C | - | 1007.2 hPa | - | - | 1000 W/m² | - |
| 1777151337 | 28.89° C | - | 1007.1 hPa | - | - | 1000 W/m² | - |
| 1777150737 | 28.33° C | - | 1006.9 hPa | - | - | 1000 W/m² | - |
| 1777150137 | 28.89° C | - | 1007 hPa | - | - | 1000 W/m² | - |
| 1777149537 | 28.33° C | - | 1007.4 hPa | - | - | 1000 W/m² | - |
| 1777148937 | 28.89° C | - | 1007.6 hPa | - | - | 1000 W/m² | - |
| 1777148337 | 28.33° C | - | 1007.5 hPa | - | - | 1000 W/m² | - |
| 1777147736 | 29.44° C | - | 1007.4 hPa | - | - | 1000 W/m² | - |
| 1777147137 | 29.44° C | - | 1007.5 hPa | - | - | 1000 W/m² | - |
| 1777146537 | 29.44° C | - | 1007.2 hPa | - | - | 1000 W/m² | - |
| 1777145937 | 29.44° C | - | 1007.2 hPa | - | - | 1000 W/m² | - |
| 1777145337 | 29.44° C | - | 1007.3 hPa | - | - | 1000 W/m² | - |
| 1777144736 | 29.44° C | - | 1007.3 hPa | - | - | 1000 W/m² | - |
| 1777144136 | 28.89° C | - | 1007.3 hPa | - | - | 1000 W/m² | - |
| 1777143536 | 29.44° C | - | 1007.5 hPa | - | - | 1000 W/m² | - |
* Rain since midnight (hover to see other rain measurements)
** Current wind speed in m/s (hover to see current wind gust speed)